sat.trackr.live / text

‹ back to catalog

STARLINK-35403

NORAD 66081 · 2025-235Z

PAYLOAD ACTIVE UNKNOWN

§ Identity

Operator
Country
US
Launch date
2025-10-19
Launch site
AFETR
Launch vehicle
Mass (kg)
RCS (m²)

Purposes: comms

External: N2YO · Heavens-Above · Gunter

§ Orbital elements

Epoch: 2026-05-24T17:42:56.792448Z

Period
94.01 min
Inclination
53.1562°
Eccentricity
0.0001179
Mean motion
15.31687381 rev/d
Perigee alt
470.0 km
Apogee alt
471.6 km
Semi-major
6,848.9 km
B*
7.0448e-4
RAAN
251.4040°
Arg perigee
66.0495°
Mean anomaly
294.0629°
Rev number
3,457

§ Raw data

STARLINK-354031 66081U 25235Z   26144.73815732  .00021550  00000+0  70448-3 0  99992 66081  53.1562 251.4040 0001179  66.0495 294.0629 15.31687381 34573

JSON: /api/v1/satellites/66081 · /tle

For live sub-satellite position, see the globe view (requires WebGL).

§ Visibility from observer

Set your observer location to see the next 7 days of passes ≥ 10°. The values pass through the URL so the page stays shareable.

No JS? Fill the form by hand. The geolocation button needs JavaScript.